Find STARLINK-37500

NORAD ID: 799500904 Int'l Des: 2026-127L Constellation: starlink operational

当前视图

正在加载3D地球...

关于 STARLINK-37500

正在加载描述...

即将过境

Passes for default location (London). Set your location on the main map for personalized predictions.

高度历史

Loading altitude history...

两行轨道根数

1 99999C 2026127L 26159.90118056 .00847700 00000-0 889630-4 0 1590
2 99999 53.1618 304.9544 0008862 292.2424 317.5101 16.09145247 17
Epoch: Jun 8, 2026 • Age: 3 hours

当前状态

高度 261.8 km
速度 7.75 km/s
星下点 -52.72°S, 64.97°W
发射日期 Jun 4, 2026
运行时间 4 days
类型 internet

Most Searched